Location: Châteauvieux
(47.2310°N, 1.3828°E)
Time: 23:26:34
(UTC+00:00)

Cosmos 1933 - Pass Details

Date: 15 May 2026
Orbit: 508 x 512 km, 82.5° (Epoch: 6 June)

Event Time Altitude Azimuth Distance (km) Brightness Sun altitude
Exits shadow 21:19:22 13° 200° (SSW) 1,524 5.3 -15.5°
Maximum altitude 21:22:37 64° 281° (W) 571 3.5 -15.8°
Drops below altitude 10° 21:26:25 10° 3° (N) 1,745 6.6 -16.2°
Sets 21:28:35 0° 7° (N) 2,637 7.6 -16.4°
